Location: Pace/Milton
(30.6162°N, 87.1503°W)
Time: 12:47:37
(UTC-06:00)

N. Korean satellite - Pass Details

Date: 06 December 2021
Orbit: 447 x 491 km, 97.3° (Epoch: 21 January)

Event Time Altitude Azimuth Distance (km) Brightness Sun altitude
Rises 05:46:29 0° 349° (NNW) 2,449 9.8 -9.9°
Reaches altitude 10° 05:49:08 10° 325° (NW) 1,573 8.7 -9.4°
Maximum altitude 05:51:09 15° 288° (WNW) 1,287 8.0 -9.0°
Drops below altitude 10° 05:53:10 10° 251° (WSW) 1,571 8.7 -8.6°
Sets 05:55:49 0° 228° (SW) 2,442 9.9 -8.0°
